Theta_e
351 348 348 347 346 346 346 346 344 343 342 341 340 337 338 341 340 341 342 341 341 342 342 342 341 340 340 340 339 339 340 340 339 339 339 339 339 340 339 338 337 337 336 336 336 336 335 335 334 333 333 333 333 333 333 333 332 332 331 331 331 330 328 326 326 326 323 320 319 318 316 314 313 311 310 310 309 309 308 308 308 307 307 307 306
351 349 348 346 346 346 346 346 344 343 343 341 340 337 338 340 341 341 341 342 342 342 343 342 341 340 340 340 339 339 340 340 340 340 340 340 339 339 338 337 336 336 336 335 335 334 334 334 333 332 332 331 331 331 330 330 330 330 330 329 330 330 327 325 325 325 324 321 318 317 316 314 312 310 310 309 309 308 308 307 307 307 307 307 306
352 350 348 346 346 346 346 345 344 343 343 341 340 338 339 340 341 341 341 343 343 342 342 341 341 340 340 339 339 340 340 340 340 340 340 339 338 338 337 337 336 335 335 334 333 333 333 333 332 331 331 330 329 329 329 329 328 330 329 328 330 330 328 325 326 327 325 321 319 320 319 317 315 311 309 308 308 308 309 309 308 306 306 306 306
352 350 348 347 346 345 346 345 344 344 343 342 340 339 340 340 341 341 342 343 343 343 342 341 341 340 340 339 339 340 340 340 340 340 340 339 337 337 336 336 335 334 334 333 333 333 332 331 330 329 329 329 328 329 329 329 328 329 329 328 327 329 328 327 328 329 326 322 323 324 321 321 323 316 308 307 307 306 307 308 308 306 305 305 305
351 350 348 347 345 345 345 345 344 344 343 343 341 340 341 341 341 341 342 343 343 342 342 341 341 340 339 339 339 339 339 340 339 339 338 337 336 336 335 334 334 333 333 333 332 332 331 330 329 328 328 327 327 328 328 328 328 328 328 327 325 326 327 326 327 328 327 324 325 327 324 326 327 316 310 309 307 306 305 305 307 306 305 305 304
349 349 348 348 346 344 345 345 344 344 343 343 341 340 341 341 341 342 343 343 342 342 342 341 341 340 339 339 338 338 338 338 338 337 337 336 336 335 333 333 333 332 331 331 330 330 330 329 328 328 327 326 326 326 327 326 327 327 327 326 325 324 325 325 324 324 324 323 323 324 325 326 320 312 315 315 309 307 306 305 304 303 304 305 304
349 349 349 348 346 345 345 345 345 344 343 343 342 341 341 342 341 342 342 342 342 342 341 341 340 340 340 339 338 337 337 337 337 336 336 335 335 333 332 332 331 331 330 329 329 328 328 327 327 325 325 325 325 326 326 325 325 325 325 324 322 321 320 319 319 320 321 319 317 316 318 321 317 312 317 316 311 310 307 306 304 302 305 305 305
349 349 349 348 347 345 345 345 345 344 343 343 342 341 341 342 342 342 343 342 342 341 341 341 340 340 339 338 337 337 336 336 336 335 335 334 333 332 331 330 330 329 329 328 327 327 325 325 324 323 322 324 325 325 325 324 323 322 322 322 320 318 315 312 313 315 316 314 312 312 313 316 315 313 315 315 316 316 311 308 305 304 305 303 303
349 349 349 348 346 345 345 345 345 344 344 343 343 342 342 342 343 343 343 342 342 341 341 340 340 339 338 337 337 337 336 336 335 334 334 333 332 331 330 329 329 329 328 327 326 325 324 323 322 321 321 323 324 323 323 322 322 321 321 321 318 315 313 311 312 313 312 312 311 311 311 313 311 311 313 312 315 319 316 311 307 306 306 304 302
348 348 349 347 346 346 345 345 345 344 344 343 343 343 343 343 343 343 342 342 342 341 340 339 339 339 338 337 337 336 336 336 335 334 333 332 331 330 329 329 328 327 326 325 324 324 323 321 320 320 320 321 322 322 321 320 320 320 320 320 317 315 313 313 313 313 313 313 312 311 312 312 311 310 311 311 311 314 316 312 308 307 309 308 307
348 348 348 347 346 346 345 345 345 344 344 344 344 343 344 343 343 343 342 342 341 340 340 338 338 338 338 337 337 336 336 335 334 333 332 331 330 329 329 328 327 326 325 324 324 323 321 320 319 318 318 319 319 319 318 317 316 316 317 317 316 315 314 313 313 313 312 312 312 312 311 310 310 310 309 310 309 310 314 313 309 308 309 309 310
347 347 347 347 346 345 345 345 344 344 344 344 343 343 344 344 343 343 342 342 341 340 339 339 338 338 338 338 337 336 336 335 334 333 332 330 330 329 328 328 326 325 325 324 322 321 319 319 318 317 315 315 314 313 313 312 312 313 314 314 314 313 313 312 312 311 311 311 310 310 310 309 309 309 308 308 308 308 311 310 307 308 310 309 310
346 347 347 347 346 345 344 344 344 344 343 344 343 343 343 343 343 343 342 342 341 340 339 339 338 338 338 338 337 336 336 335 334 333 331 331 330 329 328 327 326 325 324 323 322 321 318 317 317 316 314 312 311 310 311 311 311 312 312 312 312 311 311 310 309 309 309 309 309 308 308 308 307 307 307 307 307 306 307 306 306 307 309 310 310
346 346 346 346 346 344 344 344 343 343 343 343 343 342 342 342 343 343 342 341 340 339 339 339 339 338 338 338 338 337 335 334 334 332 331 331 330 329 328 326 325 325 324 322 321 320 319 317 316 315 313 311 310 310 311 311 311 311 312 311 311 310 309 309 308 308 308 307 307 307 307 307 306 306 306 305 305 305 305 305 307 308 308 307 307
346 346 346 346 345 344 343 343 343 343 343 343 343 342 341 342 342 342 342 341 341 339 338 339 339 339 339 338 338 337 335 334 333 332 331 330 329 328 327 326 325 324 324 323 321 320 318 317 316 315 312 310 310 310 310 310 310 310 310 310 310 309 308 308 308 307 307 306 306 305 305 305 305 305 305 305 304 305 305 304 306 312 314 309 306
345 346 346 346 344 343 343 343 343 343 342 342 342 342 341 341 342 342 341 341 341 339 338 339 340 339 339 339 337 336 335 334 333 331 330 330 329 328 327 326 325 324 323 323 321 319 318 317 315 314 311 310 309 309 309 309 308 308 308 308 308 307 307 307 307 306 305 305 304 304 305 305 304 304 304 304 304 304 305 304 303 307 313 313 311
345 345 345 345 344 343 343 343 343 343 342 342 342 342 341 340 341 342 342 341 341 340 339 339 340 339 339 338 337 335 334 333 332 331 330 329 328 327 327 326 325 324 323 322 320 319 317 316 314 312 310 309 309 309 308 308 306 306 306 306 306 306 305 305 305 305 305 304 303 303 303 303 303 303 304 304 304 304 304 304 303 302 306 310 311
345 345 345 345 344 343 343 343 343 343 342 342 342 342 341 339 340 342 341 341 341 341 339 339 339 339 339 338 337 335 334 333 332 331 330 329 328 327 326 326 324 324 323 321 319 318 316 316 313 311 309 309 309 308 307 306 305 306 306 306 306 304 304 304 304 305 305 304 303 301 301 302 303 303 304 304 304 304 303 303 305 304 303 304 305
345 345 345 344 344 343 342 342 343 343 343 342 342 342 340 339 340 341 341 341 341 340 340 339 339 339 339 338 336 335 333 332 332 331 330 329 328 327 326 325 324 323 322 320 319 317 316 314 312 310 309 309 308 307 306 306 305 306 306 306 306 304 303 304 304 304 304 303 302 303 303 303 303 303 303 304 303 303 303 303 304 304 304 303 302
346 345 345 344 343 343 342 342 342 342 343 342 342 341 340 339 339 341 341 341 340 340 340 340 339 339 339 338 336 335 333 332 331 330 330 329 328 327 326 325 323 322 321 319 318 317 315 313 311 309 309 309 308 307 307 306 305 305 305 305 305 304 303 303 304 304 305 305 305 305 305 305 304 304 304 304 304 304 304 303 304 304 303 303 302
345 345 344 344 343 342 342 342 343 342 342 342 342 341 340 339 339 340 341 340 340 340 340 340 339 339 338 337 336 334 333 332 331 330 329 328 327 327 326 324 323 321 320 319 318 316 314 313 310 309 309 308 308 307 307 306 305 306 306 305 304 303 303 304 305 305 306 306 306 305 305 304 304 304 304 304 304 304 304 303 303 303 303 303 303
345 345 344 344 343 342 341 342 342 342 342 342 341 341 340 339 339 339 340 341 340 340 340 340 339 338 338 337 335 334 333 332 330 329 328 328 327 326 325 324 322 321 320 318 317 316 314 313 310 309 308 308 308 307 306 306 305 306 306 305 304 303 304 305 305 305 305 304 305 304 304 304 304 304 303 303 304 305 304 303 303 302 302 302 302
344 344 344 344 343 341 340 341 342 341 341 341 340 341 341 340 340 339 340 340 340 340 340 339 339 338 338 337 335 334 333 331 330 329 328 327 327 325 324 324 322 320 318 318 317 316 314 312 311 309 308 308 308 307 306 307 306 306 306 306 305 303 304 305 305 304 304 304 304 303 304 305 305 304 303 302 303 304 304 304 303 302 301 301 300
344 344 343 343 342 341 340 341 341 341 341 341 340 340 341 341 341 340 340 340 340 340 339 339 339 338 337 337 335 334 332 331 330 329 328 327 326 325 324 323 322 320 318 317 316 315 314 312 310 309 308 308 307 307 307 308 306 306 307 306 305 304 304 305 304 304 304 304 304 304 305 305 305 304 303 302 302 303 303 303 302 301 300 300 299
345 344 344 344 342 341 341 341 341 341 341 341 340 340 340 341 341 340 340 340 340 340 339 339 339 338 337 336 335 333 332 330 329 328 328 327 326 325 324 323 321 319 318 317 316 315 313 312 311 309 308 308 307 307 308 307 306 306 307 306 305 305 305 304 304 304 304 304 304 305 305 305 304 303 303 302 301 302 302 301 301 300 299 298 297
346 345 344 344 342 341 341 341 341 341 341 341 340 340 340 340 341 341 340 341 340 340 339 339 338 338 336 335 334 333 331 330 329 327 327 326 325 324 323 322 320 319 318 316 316 314 313 312 311 309 309 308 307 308 308 307 306 306 307 306 306 305 304 304 304 304 304 304 304 305 305 305 305 303 303 302 300 300 301 301 300 299 296 295 295
345 345 344 343 342 342 341 340 340 341 341 341 340 341 340 340 341 340 340 340 340 340 339 339 338 337 336 335 333 332 331 329 328 327 326 325 324 323 322 321 320 318 317 316 315 314 312 311 310 309 309 308 307 308 308 306 306 307 306 306 306 305 305 304 304 304 305 304 305 305 304 304 304 303 302 301 298 298 300 300 297 295 294 295 296
345 345 344 343 343 342 341 340 339 340 341 341 341 340 340 341 341 340 340 340 340 339 339 338 337 336 335 333 332 331 330 328 327 326 325 324 322 321 320 320 319 317 316 316 315 313 312 311 310 309 309 308 307 308 307 306 307 307 306 306 306 306 305 304 304 305 304 304 305 304 304 303 303 302 301 297 294 295 296 296 295 295 297 299 299
346 345 345 343 343 342 341 340 339 339 340 340 341 341 340 340 340 340 340 340 339 339 338 337 337 335 334 332 331 330 328 327 326 325 324 322 321 320 319 319 318 316 316 315 314 313 312 311 310 309 309 308 308 307 307 307 307 306 306 306 306 306 305 304 304 304 304 304 304 304 304 302 300 298 297 294 291 293 294 294 296 298 300 300 300
345 345 344 344 343 342 341 341 339 339 340 340 340 341 340 340 340 340 340 339 339 338 337 337 336 334 333 331 330 328 327 326 325 324 323 321 320 319 319 318 316 316 315 315 314 312 311 310 310 309 309 308 307 307 307 306 305 305 306 306 306 305 305 304 305 304 304 304 304 304 303 299 295 293 293 294 295 296 297 297 298 300 300 300 300
345 345 344 343 343 342 341 341 340 339 340 340 340 340 340 339 340 339 340 339 338 338 337 336 335 333 331 330 328 327 326 325 324 323 322 321 320 318 318 317 316 315 315 314 313 312 311 310 310 309 309 308 307 307 305 304 305 306 306 306 305 305 305 305 305 304 304 304 304 304 303 300 298 295 293 295 299 299 299 299 299 300 301 301 301
345 344 345 344 343 342 342 341 340 339 340 340 339 339 339 339 339 339 339 339 337 337 336 335 333 332 330 329 327 326 325 324 323 322 322 321 319 318 317 316 315 315 315 314 313 312 311 310 309 309 308 307 307 305 303 304 306 306 306 306 306 305 305 305 305 304 304 304 304 304 304 303 303 299 295 297 300 300 299 298 297 300 302 302 302
347 344 345 345 343 343 341 340 340 339 340 340 339 339 339 338 339 339 339 338 337 336 335 334 332 330 328 327 327 326 324 323 322 322 321 320 319 317 316 315 315 315 314 313 312 312 311 310 309 309 308 307 306 304 303 305 306 305 306 306 306 306 306 305 305 305 304 304 304 305 304 304 303 301 299 300 300 299 298 296 296 300 303 302 302
344 342 345 345 343 342 339 338 340 340 340 340 339 339 339 338 338 338 338 337 336 335 334 333 331 329 327 326 326 325 324 323 322 321 320 320 318 316 315 315 315 314 313 312 312 311 311 310 309 308 308 307 306 304 304 306 305 305 306 306 306 306 306 305 305 306 305 305 305 305 305 304 303 302 302 302 301 301 298 295 297 302 302 301 302
335 338 344 344 344 343 338 337 340 340 339 339 338 338 339 338 338 338 338 337 335 334 333 331 329 328 326 325 325 324 323 322 321 321 320 319 318 316 315 314 314 314 313 312 311 311 310 309 309 308 308 307 306 305 306 305 305 306 306 306 306 306 306 306 306 306 306 306 305 305 305 304 303 303 303 303 302 303 299 295 299 303 301 301 302
334 338 343 343 343 341 339 338 339 339 339 339 338 338 338 338 337 337 337 336 335 333 332 330 328 326 325 325 324 323 322 321 321 320 320 319 317 315 314 314 314 313 312 311 311 310 310 309 308 308 307 306 306 306 306 305 305 306 306 306 307 306 306 306 306 306 306 306 305 305 305 305 304 303 303 303 303 303 299 295 298 301 300 301 302
336 338 339 339 339 338 339 339 339 338 338 338 337 337 337 337 337 336 336 335 333 332 330 329 327 326 325 324 323 322 322 321 321 320 320 319 316 314 313 313 313 312 311 310 310 309 309 309 308 307 306 306 306 306 306 305 305 306 306 306 307 306 305 306 306 306 306 306 306 305 305 304 303 303 303 302 302 303 299 295 295 297 299 301 302
337 338 336 336 338 339 339 339 338 338 338 337 337 337 336 336 336 335 335 333 331 330 329 328 326 325 324 324 323 322 322 321 320 320 320 318 315 314 313 313 312 311 310 310 310 309 309 308 307 307 307 307 307 307 306 306 305 305 305 306 306 306 305 306 306 306 306 306 305 305 305 305 303 302 303 302 302 303 299 295 293 295 297 299 299
334 335 336 335 338 339 338 338 338 337 337 337 336 336 335 335 335 334 333 331 330 329 328 327 326 325 324 324 323 322 322 321 320 320 319 317 314 313 313 312 311 310 310 309 309 308 308 308 308 308 308 307 307 307 307 307 306 306 305 305 306 306 305 306 306 306 306 305 305 305 305 304 302 302 303 302 303 302 298 294 293 294 295 296 296
333 333 336 336 338 339 337 337 337 336 336 336 336 335 335 334 334 333 332 331 330 328 327 326 325 324 324 323 323 322 321 321 320 319 318 316 314 312 312 311 310 310 309 309 308 307 307 306 307 308 308 307 307 308 308 307 307 306 305 305 305 306 305 305 305 304 304 304 304 304 305 304 302 302 302 302 302 300 296 293 293 294 294 294 295
332 334 338 338 338 338 337 337 337 336 335 335 335 334 333 333 333 332 332 332 330 328 327 326 325 324 324 323 322 322 320 320 319 319 317 314 313 312 312 311 310 309 309 308 307 306 306 306 306 306 307 307 307 308 308 307 307 306 305 304 305 305 304 304 303 303 303 303 304 304 305 304 303 302 302 302 300 297 294 293 294 294 294 294 295
334 336 338 337 337 337 337 336 336 335 335 334 334 333 332 332 333 332 332 331 330 328 327 326 325 324 323 322 321 320 320 319 319 318 316 314 313 312 311 310 309 308 308 307 306 306 306 306 305 305 305 307 308 308 308 307 307 305 303 302 304 304 303 302 302 302 303 304 304 304 304 304 304 302 300 298 297 294 293 294 294 295 295 295 296
338 337 338 337 337 336 336 335 335 334 334 333 332 332 331 332 332 332 332 331 330 329 327 326 325 325 323 322 321 320 319 319 318 317 315 314 312 311 309 309 308 307 306 305 304 304 304 304 304 305 306 307 308 308 307 307 307 304 300 300 303 303 302 302 302 303 303 304 303 303 304 303 303 302 298 296 296 296 295 294 294 295 297 297 297
339 337 337 337 336 336 336 335 334 333 333 332 332 331 330 331 331 331 331 331 330 328 327 326 325 324 323 322 321 320 319 318 317 316 315 313 311 309 308 308 307 305 304 303 303 303 303 304 305 307 307 307 307 307 306 307 307 304 300 298 299 302 302 302 302 303 303 303 303 303 303 303 303 302 299 298 299 299 297 294 294 296 298 298 298
338 336 336 336 335 335 335 334 333 333 333 332 331 330 330 330 331 331 331 331 330 328 327 325 324 322 321 320 320 319 318 317 316 315 313 312 310 309 307 306 305 304 304 304 304 305 305 305 306 307 306 306 306 306 306 306 305 303 300 297 297 300 301 301 302 302 301 302 303 302 303 303 302 301 300 300 300 298 296 294 294 295 297 299 299
334 334 335 336 335 334 334 334 333 333 332 332 331 330 330 330 330 331 331 330 329 327 325 323 321 320 319 319 319 317 316 315 315 314 312 311 310 309 307 306 305 304 304 305 305 306 305 305 306 306 305 306 306 305 305 305 303 302 300 297 296 298 300 301 301 300 300 301 302 302 302 302 301 300 300 300 300 298 295 294 295 296 298 299 300
330 331 332 334 335 333 333 333 333 333 332 332 331 330 330 330 330 330 330 329 327 325 322 321 320 319 319 318 317 316 315 314 313 312 311 310 309 309 307 306 305 305 305 305 305 305 305 304 304 305 305 305 305 305 305 304 302 301 300 298 296 297 298 299 299 299 299 300 301 301 301 301 300 300 300 300 300 298 296 295 296 297 299 300 300
327 327 329 332 333 333 333 332 332 333 332 331 331 331 330 331 330 329 329 327 324 322 320 318 318 318 317 316 316 314 313 312 312 311 311 309 309 308 307 306 305 305 305 304 304 304 304 303 303 304 305 304 304 304 305 304 302 300 299 298 298 298 297 296 297 298 298 299 300 300 300 299 299 299 299 299 299 298 296 295 296 297 299 301 301
327 327 328 331 331 332 333 332 332 332 332 332 331 331 330 331 330 329 328 324 321 320 319 317 316 316 315 315 314 313 313 312 311 311 310 310 309 308 307 306 306 305 305 305 304 303 303 303 302 303 304 304 304 304 304 304 302 300 298 297 298 298 296 294 296 297 298 298 299 299 299 299 298 298 297 297 297 296 295 296 298 299 301 302 302
328 328 328 329 329 330 331 331 332 332 332 332 331 330 330 329 329 329 326 323 321 319 318 316 315 314 314 313 312 312 312 311 310 310 309 309 308 308 307 306 305 305 305 305 304 304 303 302 303 304 305 304 304 304 303 303 301 300 298 297 296 296 294 293 294 295 296 297 298 299 298 298 297 297 297 296 296 296 297 299 300 301 302 302 301
328 328 328 328 328 329 329 330 331 332 332 331 331 330 329 328 327 326 325 323 321 319 317 315 314 313 313 312 311 311 311 310 310 309 309 308 307 307 306 306 305 305 305 304 304 304 303 302 303 304 305 304 303 303 303 302 301 300 298 297 296 295 293 291 292 292 293 296 298 298 298 298 297 297 297 298 298 298 299 300 300 300 300 301 301
Wind_Speed
17 25 28 30 33 33 32 31 31 31 31 32 35 35 30 28 30 30 27 27 28 28 26 27 26 22 22 22 22 21 17 18 18 15 15 15 15 15 15 15 13 13 15 14 14 15 14 12 10 8 8 8 8 8 6 8 8 6 6 7 6 8 14 19 18 16 15 13 10 9 9 9 8 8 7 6 5 4 5 5 5 4 5 6 6
16 20 24 29 31 32 31 31 33 32 31 34 35 35 31 28 29 29 28 28 29 29 28 28 28 25 24 23 23 21 18 19 18 17 17 15 15 16 16 16 14 13 15 15 15 14 12 10 9 9 8 7 7 7 6 6 9 8 7 8 8 10 16 19 18 13 11 12 12 9 7 6 6 7 7 6 6 5 5 5 5 4 4 5 5
15 16 19 26 30 31 31 31 33 33 32 34 35 35 33 30 28 28 29 29 29 30 29 29 28 27 24 23 23 22 20 20 19 19 18 16 17 17 17 17 15 15 15 14 15 14 12 11 10 9 9 8 7 7 6 6 9 9 8 9 9 12 15 17 14 8 8 14 14 7 3 3 3 3 5 5 5 6 6 6 6 5 4 5 4
17 16 16 21 27 29 30 31 33 32 32 33 35 35 33 31 30 29 29 29 30 30 30 28 27 25 23 22 22 22 21 22 21 20 19 18 20 20 18 17 16 15 13 12 13 12 12 10 9 9 10 10 9 8 8 7 8 8 9 10 10 12 14 13 9 6 10 14 8 3 4 4 1 3 5 4 3 5 5 7 7 5 5 5 4
18 18 16 17 22 27 30 32 33 33 33 34 36 36 32 32 32 30 29 29 30 31 30 27 26 24 23 22 22 23 23 24 23 22 21 21 22 22 20 18 16 14 12 11 11 10 10 8 7 8 8 9 8 7 8 9 9 8 8 9 10 11 13 12 8 6 11 14 7 3 5 2 2 6 7 4 4 4 3 5 6 4 6 6 3
19 19 18 17 21 26 29 32 33 34 35 36 37 36 33 32 32 30 30 29 29 31 31 28 27 27 27 26 27 27 25 26 27 25 23 22 23 22 20 19 18 15 13 12 10 9 9 9 8 6 6 8 8 7 9 10 10 9 9 9 8 10 13 14 11 8 10 12 7 4 4 2 6 10 6 2 3 4 3 4 3 4 7 6 3
18 19 19 18 20 23 26 31 35 35 35 36 35 35 34 32 31 31 30 30 29 31 31 30 29 28 28 28 29 29 26 25 26 25 23 21 22 22 20 19 18 15 13 12 10 8 8 10 9 5 6 9 8 9 11 10 10 11 10 9 9 10 12 13 13 11 10 8 5 4 5 5 9 10 6 3 3 3 5 5 3 4 6 5 3
17 17 19 19 21 24 27 33 35 35 35 35 35 36 34 32 32 31 30 30 30 31 31 31 31 28 27 27 28 28 27 25 24 23 21 20 21 21 19 19 17 14 12 11 9 7 7 11 9 5 8 11 10 12 12 11 11 12 11 11 11 11 10 11 13 11 10 9 8 7 7 7 9 8 6 6 4 3 4 5 5 5 4 5 5
18 18 19 19 22 28 32 34 33 34 36 36 36 36 34 33 32 31 31 31 31 31 30 31 31 28 27 27 26 26 26 24 23 21 21 22 22 22 20 19 16 13 11 10 9 8 9 12 10 8 10 13 13 13 13 12 12 11 11 11 11 12 13 14 14 10 10 11 9 9 9 10 10 9 7 6 4 3 3 4 7 7 5 6 6
18 19 20 20 25 30 31 31 32 34 36 36 35 34 33 33 32 31 32 31 31 32 30 30 31 29 27 27 26 26 25 25 24 23 24 25 24 23 21 18 16 15 14 11 10 10 11 13 12 11 12 13 13 13 12 12 13 12 12 12 12 14 15 15 14 12 12 11 10 10 10 10 8 8 8 8 7 5 3 2 7 10 7 6 8
16 17 17 19 24 28 28 29 31 33 33 34 34 34 34 33 32 32 32 32 31 32 31 30 29 29 29 28 27 27 27 28 28 27 27 27 25 23 21 19 18 18 16 12 11 12 13 14 13 11 11 12 12 12 12 12 13 13 13 13 13 14 14 14 14 13 13 13 12 12 13 12 11 10 10 10 9 6 4 1 3 7 8 6 6
16 16 15 15 17 20 24 27 30 31 31 33 34 34 34 33 32 32 31 32 32 31 31 30 29 30 29 28 28 29 29 30 31 30 29 28 25 23 22 21 19 18 16 14 14 14 14 14 13 12 11 11 11 11 12 13 14 14 15 15 15 14 14 14 14 14 13 14 15 14 15 14 14 12 11 11 11 9 7 4 3 1 6 7 6
17 17 15 15 15 16 21 25 28 30 32 33 34 34 34 34 33 33 32 33 34 32 30 30 30 31 30 28 28 30 31 31 32 31 31 29 26 24 24 24 22 20 17 16 15 14 14 14 14 13 13 12 12 12 13 14 15 16 16 16 16 15 15 15 15 15 14 14 15 14 14 14 14 12 11 11 11 10 10 6 4 4 2 3 6
18 17 16 16 16 16 21 27 29 30 33 34 34 34 35 34 34 34 33 33 34 33 32 31 31 31 30 29 29 31 32 31 31 32 31 29 27 25 25 24 23 21 19 16 14 13 14 14 14 14 14 14 14 14 14 15 15 16 16 17 17 16 16 16 16 16 15 15 14 14 14 14 13 12 11 12 12 11 13 10 5 4 6 5 2
17 17 17 17 18 20 23 27 29 30 33 35 34 34 34 35 35 35 34 33 33 34 34 32 31 31 30 29 29 32 32 31 31 31 30 29 28 26 25 23 20 20 19 16 14 15 15 14 13 14 15 14 14 15 15 15 15 16 16 16 17 16 17 17 17 16 15 15 14 15 15 14 13 13 13 14 14 14 14 13 9 5 4 7 7
17 16 17 18 19 22 25 26 28 30 32 34 35 35 36 36 35 35 34 33 34 35 35 33 32 32 31 29 30 32 32 31 30 29 28 28 29 27 24 22 20 18 17 15 15 16 16 15 14 14 15 15 15 15 16 15 15 16 16 16 17 16 16 17 17 16 15 14 14 14 14 14 13 13 15 15 14 14 14 13 13 11 6 3 5
17 17 18 19 19 21 25 27 29 30 31 35 36 36 37 36 35 35 33 33 34 35 35 34 32 32 31 30 31 33 32 31 30 29 28 28 29 27 24 21 20 18 17 16 17 18 17 16 14 15 16 16 16 15 15 15 15 16 17 17 17 16 16 17 16 16 15 15 14 13 14 15 13 13 14 14 13 13 13 12 13 13 10 5 2
19 21 20 20 19 20 25 29 32 33 34 36 36 35 35 35 35 35 34 34 35 36 36 35 33 32 32 32 32 33 32 31 30 30 29 29 29 26 24 22 20 18 19 20 19 18 16 14 14 15 16 16 15 15 15 16 17 18 18 17 17 17 17 18 16 16 15 14 14 15 15 15 13 13 12 12 12 13 12 12 10 10 11 8 4
18 19 18 18 18 20 25 29 31 33 33 33 33 32 32 33 34 34 34 34 34 34 36 35 33 32 32 33 33 32 32 31 31 31 30 30 29 27 25 23 21 20 22 23 20 17 16 14 15 17 17 16 16 16 17 17 18 18 18 17 17 16 17 17 15 15 15 14 16 16 15 14 13 12 11 11 11 12 11 11 9 8 9 8 6
17 17 18 19 19 21 27 30 30 31 31 32 32 32 32 33 33 33 33 33 33 34 35 34 33 32 31 33 33 32 32 31 31 31 31 30 29 27 26 24 22 22 23 22 19 18 17 17 18 18 18 17 17 17 18 18 17 18 17 17 16 15 16 16 16 15 15 14 15 15 13 12 11 10 10 9 10 10 9 8 8 8 7 6 6
18 18 18 19 18 20 26 29 29 29 29 30 30 31 32 32 32 33 33 33 35 35 34 33 32 32 33 33 33 32 32 31 32 32 31 30 29 27 26 26 24 21 22 21 19 18 18 18 19 19 19 19 18 18 18 17 18 18 16 15 15 15 16 17 16 14 13 12 13 14 13 12 11 9 9 9 9 10 8 7 7 7 6 6 6
19 19 18 17 15 17 23 26 27 27 27 29 30 30 31 31 32 33 34 34 35 34 34 33 32 33 34 34 34 33 32 32 33 33 31 30 29 28 28 27 24 22 22 21 20 19 18 19 20 19 19 19 18 18 18 18 18 18 17 15 15 15 17 17 15 14 12 11 12 12 13 12 9 7 7 8 9 9 9 7 6 5 6 7 7
20 18 16 15 14 17 22 25 26 27 28 30 31 31 32 32 33 34 34 34 34 34 33 33 33 33 34 35 34 33 33 34 34 33 31 30 30 29 29 27 24 24 22 20 20 21 19 19 20 20 20 20 19 18 18 18 18 18 18 16 14 15 17 17 16 15 13 12 11 12 12 11 9 7 7 7 8 7 8 7 5 4 4 6 6
19 17 14 13 14 16 19 20 24 26 28 30 32 32 32 32 32 33 34 34 34 34 33 33 34 34 34 35 35 33 34 35 35 33 32 31 31 31 30 27 24 24 22 21 21 21 20 20 21 21 20 20 20 19 18 18 18 19 18 16 15 16 16 15 15 14 13 11 11 12 11 9 8 8 7 6 7 6 6 5 4 3 3 5 6
18 16 15 16 16 16 16 18 23 26 28 30 32 32 32 33 33 33 33 34 34 34 34 34 34 34 34 35 35 35 34 36 35 34 33 32 32 32 30 27 24 23 23 23 23 22 21 22 22 21 21 21 21 20 19 19 19 18 17 16 16 15 14 14 13 13 12 11 11 11 10 8 7 7 5 4 5 5 4 4 3 3 3 5 6
19 18 17 18 17 17 17 18 23 27 28 29 30 30 31 32 32 32 32 34 34 34 35 35 34 34 34 35 36 35 35 36 35 34 34 34 33 32 30 28 26 25 25 25 25 23 22 23 23 22 22 22 21 21 20 19 19 18 16 16 15 15 15 14 13 13 12 11 10 10 9 8 7 6 5 3 3 5 4 2 2 3 4 5 6
19 18 17 17 17 18 18 19 23 27 28 29 29 30 30 31 32 32 32 33 34 35 36 36 35 34 34 36 37 36 35 35 35 36 35 34 32 32 31 30 28 27 27 27 26 24 24 24 23 23 23 22 22 21 20 20 20 18 17 16 16 16 16 15 14 13 12 11 10 10 9 8 7 5 3 1 2 4 4 1 2 4 5 7 9
17 17 18 18 17 18 18 18 21 25 26 27 28 29 30 31 31 32 31 32 34 35 36 36 36 35 34 35 36 36 36 35 35 36 35 33 33 32 31 30 28 27 28 28 26 26 25 24 23 23 23 22 22 22 21 21 21 19 18 18 17 17 17 16 14 13 12 11 10 9 8 7 6 5 2 1 2 3 2 1 3 5 6 8 9
17 18 19 19 18 18 17 16 18 22 25 26 27 28 29 29 30 31 30 32 34 35 35 36 36 35 35 35 35 36 36 35 35 36 35 34 33 32 31 29 28 28 28 27 26 27 26 25 25 24 23 22 23 23 22 23 22 20 19 19 17 17 16 16 15 14 12 11 10 9 7 5 4 4 3 3 4 4 3 3 4 5 6 8 10
19 18 18 18 18 18 17 16 17 21 24 25 26 28 29 28 29 30 30 31 35 35 34 34 35 34 35 35 35 35 36 35 36 35 35 34 33 32 31 30 28 29 28 27 27 27 27 27 26 26 25 25 24 24 24 23 21 20 20 19 18 17 17 16 16 15 13 12 11 9 6 3 2 4 5 4 3 3 3 3 4 5 7 9 11
17 18 17 17 16 16 16 16 17 22 26 26 26 27 28 29 29 30 30 31 34 35 34 33 33 34 35 36 35 36 36 35 35 35 35 34 33 32 31 30 29 29 29 29 29 28 28 28 28 28 28 27 27 26 24 20 19 20 20 19 18 17 17 16 15 15 14 13 11 9 6 4 2 3 5 4 1 1 2 3 3 3 5 9 12
8 10 12 14 15 16 17 17 19 24 27 27 28 28 28 29 30 29 30 31 33 34 34 33 33 34 36 36 36 36 36 35 35 35 35 34 33 32 31 30 30 30 30 29 29 30 29 29 30 30 29 28 28 26 21 18 20 21 19 18 18 17 17 16 15 14 14 13 12 9 7 5 2 3 4 3 2 1 2 4 4 3 4 8 10
4 5 8 12 13 14 16 18 20 25 28 30 31 29 28 30 30 29 30 31 32 33 34 33 34 35 36 37 37 37 35 35 35 35 35 34 33 32 32 31 31 31 31 30 30 31 29 29 31 31 29 29 26 21 18 19 21 21 18 18 18 17 16 16 15 14 13 13 13 11 9 7 4 3 3 2 3 3 5 7 6 3 4 7 8
9 9 9 11 12 13 16 21 25 28 31 32 32 30 30 31 30 30 31 32 31 32 34 35 35 36 36 36 37 36 35 34 34 34 34 34 33 32 32 32 32 32 32 30 31 31 30 29 31 31 29 27 22 19 19 21 20 20 19 19 17 16 15 15 14 14 13 14 14 13 11 8 6 5 5 5 5 5 7 7 4 2 5 7 7
14 14 13 13 12 12 15 20 26 30 32 32 31 30 31 31 31 31 31 31 32 32 32 34 35 36 36 36 36 35 35 35 34 34 34 34 33 32 32 32 33 33 32 31 31 31 30 29 30 30 27 24 20 20 22 22 21 20 20 19 17 17 16 14 14 14 14 15 17 15 11 9 8 9 9 8 7 7 8 6 3 2 4 5 6
13 13 13 14 15 17 19 23 27 30 31 31 31 32 33 32 31 32 31 30 31 32 32 33 34 35 36 36 36 35 35 35 35 34 33 33 33 32 32 33 33 32 31 31 30 30 30 29 29 28 26 22 21 23 23 22 22 21 22 20 16 16 18 16 14 14 13 14 16 14 10 9 10 12 11 9 8 8 8 6 5 4 3 3 4
12 14 17 21 23 26 27 28 29 30 31 32 32 33 33 31 31 31 30 30 29 30 31 33 35 36 36 36 36 36 35 35 35 35 33 32 31 32 33 33 33 31 30 30 30 29 28 28 28 26 25 23 23 24 24 23 23 21 23 22 16 16 18 17 14 14 14 15 15 14 11 10 11 12 11 9 9 9 8 7 7 5 2 1 2
11 13 18 23 26 28 30 32 32 30 31 33 34 34 33 31 30 30 30 29 29 30 31 33 34 35 36 36 37 38 37 36 35 35 34 32 31 33 34 35 35 34 32 31 31 29 28 28 26 25 24 24 24 24 23 24 23 22 23 23 19 15 15 14 13 14 15 14 13 14 14 14 13 12 11 11 10 10 9 7 5 3 3 3 3
14 17 18 21 25 28 31 33 31 30 31 35 36 36 33 30 29 30 30 28 28 31 33 34 34 35 36 36 37 38 38 38 36 35 33 32 32 34 35 35 35 34 31 30 30 29 29 28 26 24 24 24 24 24 23 24 24 23 24 25 22 17 14 12 12 13 13 13 14 15 15 16 15 14 13 12 11 10 9 7 5 3 4 4 3
14 20 23 25 27 28 28 29 30 31 34 37 37 35 32 30 29 29 30 30 31 32 33 34 35 35 35 34 36 38 38 38 37 34 33 33 33 33 34 33 32 32 31 30 29 29 29 28 26 25 24 24 24 24 25 25 23 24 26 28 27 22 17 13 13 13 14 14 15 17 17 16 16 16 15 13 11 10 9 8 6 4 4 4 3
15 20 24 25 27 28 28 28 31 33 35 37 37 32 29 30 29 27 27 30 33 34 34 34 35 35 34 34 35 36 36 35 35 34 32 32 33 33 33 32 31 31 30 29 28 28 28 28 27 26 24 23 24 25 27 26 23 24 28 31 31 26 19 15 15 16 17 17 17 18 19 18 17 17 17 16 14 11 10 9 7 5 4 4 4
19 24 26 24 23 25 27 27 31 36 36 36 35 31 28 29 29 27 28 28 31 34 35 34 34 34 33 33 33 33 33 34 35 34 33 32 32 33 33 32 32 31 30 30 28 28 28 27 26 26 26 25 24 25 27 26 24 25 28 31 32 29 21 17 16 17 18 20 20 19 19 18 17 16 16 16 14 12 10 9 7 5 4 4 5
14 19 25 25 21 21 24 26 30 33 34 35 35 30 28 28 26 28 31 30 31 35 35 34 34 33 32 33 33 33 34 35 35 35 35 33 32 32 32 32 32 30 30 29 28 28 27 27 26 26 27 26 25 25 25 24 25 26 28 30 32 31 25 19 16 15 16 18 19 19 19 19 17 15 14 13 12 11 10 9 7 5 4 4 6
13 17 24 26 22 21 23 25 28 30 30 32 33 30 27 27 26 28 32 31 31 35 35 34 34 33 32 33 34 34 34 35 35 36 35 33 32 31 31 31 30 29 28 28 28 28 28 28 27 26 26 26 25 24 23 23 25 27 28 29 32 32 27 21 17 14 13 14 15 17 19 20 18 15 14 13 12 11 10 9 8 7 6 7 8
10 18 23 24 22 23 24 24 25 29 30 30 32 30 26 26 27 30 32 31 31 32 32 32 32 32 33 35 35 33 34 34 36 36 34 33 33 31 30 30 29 29 28 28 28 29 30 29 27 25 25 24 24 23 23 24 25 26 27 28 30 32 30 24 19 14 10 10 11 12 16 19 20 17 15 14 12 10 10 10 10 10 10 10 11
6 9 17 24 26 24 24 24 25 27 29 29 30 31 29 27 28 31 31 31 31 31 31 31 31 32 34 36 34 32 31 33 34 35 34 34 34 33 32 30 29 29 29 28 29 29 29 29 27 25 23 23 23 23 25 25 26 27 27 27 29 32 31 27 22 16 10 7 8 9 11 16 18 17 15 13 10 9 11 12 12 12 13 13 13
8 7 1 13 22 20 18 20 22 25 27 27 28 30 30 30 30 30 30 32 32 32 31 31 32 33 34 34 33 31 31 31 32 32 31 31 32 32 31 31 30 29 28 28 29 29 28 27 27 25 23 24 25 26 26 26 26 28 28 27 29 31 31 30 27 22 14 8 7 8 11 13 15 14 12 11 10 11 13 14 15 15 14 14 15
4 5 7 0 10 16 17 18 19 23 26 27 27 28 30 31 30 30 31 32 32 32 32 31 32 33 32 32 33 32 32 32 32 32 32 31 32 32 32 33 34 35 33 32 30 30 29 29 27 26 25 25 26 28 28 28 28 29 30 30 30 31 31 32 31 26 19 12 8 8 11 11 11 11 11 12 12 14 15 17 18 17 16 17 17
7 6 4 1 3 11 17 17 17 22 25 25 25 25 27 29 31 32 33 32 31 31 31 30 30 31 29 30 31 32 33 32 32 32 32 33 34 35 35 35 35 35 36 36 34 33 32 31 29 29 29 27 28 30 31 29 28 29 31 32 33 32 33 33 31 28 23 17 12 11 12 13 12 12 12 14 15 16 17 18 18 17 17 16 14
11 7 6 8 6 10 15 16 15 19 22 23 24 25 25 28 30 32 34 33 31 28 27 28 29 29 29 29 30 30 31 31 31 30 29 28 28 29 31 32 31 32 33 34 33 33 32 31 30 31 31 30 30 31 30 26 25 26 28 31 32 32 32 32 30 27 23 19 17 16 15 14 13 13 14 15 15 15 16 17 17 17 16 13 10
13 9 9 11 10 14 18 19 19 20 21 23 25 26 27 27 29 33 35 35 33 29 25 25 27 28 29 30 30 29 28 28 28 28 27 25 23 22 23 25 26 28 30 30 29 28 28 29 29 29 29 28 28 28 26 23 22 22 24 28 30 30 29 29 29 27 24 22 20 19 18 16 14 14 15 15 14 15 16 18 19 19 17 14 12
Wind_Direction
160 161 163 163 166 170 173 173 170 170 173 175 178 181 182 182 184 183 183 186 184 182 181 177 177 175 168 169 169 169 170 164 163 168 173 175 177 178 178 177 177 172 172 173 166 160 157 152 150 159 172 178 191 199 179 166 178 180 176 190 182 158 160 161 161 157 136 120 122 128 128 127 130 134 131 135 142 141 139 124 110 102 84 75 74
157 158 163 165 167 171 171 169 169 169 170 174 177 181 185 186 186 185 185 188 187 185 182 179 179 177 174 175 172 172 175 168 163 165 169 170 171 176 175 172 169 163 165 169 164 157 156 160 170 176 179 184 196 204 197 180 180 174 172 188 188 169 164 163 164 162 146 141 140 127 119 126 135 143 139 131 131 133 129 120 115 118 110 100 97
159 161 163 166 168 169 169 169 172 173 172 174 177 179 185 188 188 189 188 189 189 188 185 182 182 180 179 177 172 170 173 170 163 163 166 163 163 169 170 166 165 161 158 160 158 153 156 168 179 185 191 187 178 181 187 189 184 178 180 188 178 161 162 167 170 179 171 153 142 134 149 140 139 170 155 139 148 157 154 143 129 125 130 116 100
163 164 164 165 167 168 169 171 173 175 176 178 179 179 183 187 190 192 192 191 191 189 187 185 183 181 180 177 173 169 166 165 162 161 165 159 155 159 159 161 166 168 168 171 171 169 171 174 174 181 190 189 184 184 189 192 188 183 188 195 185 166 162 167 179 198 180 161 145 151 169 148 181 207 166 151 179 182 178 174 159 141 135 121 100
164 166 167 165 168 170 171 172 174 176 179 181 182 182 182 186 190 194 194 193 192 191 189 185 181 179 176 173 169 162 156 158 157 156 160 158 155 154 156 162 163 161 173 188 197 200 199 192 179 178 188 194 190 182 181 181 179 178 180 188 197 189 176 169 170 180 179 180 183 159 156 171 206 172 156 158 196 187 163 175 184 176 144 124 105
166 168 171 169 170 171 171 173 175 179 182 184 183 183 183 185 189 193 195 195 194 193 190 185 182 179 175 168 161 154 151 155 157 156 158 159 158 158 160 165 160 156 170 184 192 199 203 200 191 189 199 200 193 175 172 173 177 185 186 186 193 195 186 177 170 169 172 183 195 166 154 172 162 157 151 154 204 201 159 153 178 170 155 144 123
170 170 170 169 170 170 173 177 179 182 183 183 182 182 184 184 188 193 195 193 193 195 193 188 184 181 178 171 163 160 155 156 161 161 161 163 164 163 163 163 158 158 167 174 179 186 191 186 184 194 191 187 187 179 176 174 174 179 182 182 175 174 183 179 171 173 172 170 176 157 129 138 159 162 165 153 160 204 200 191 189 155 156 163 160
170 171 171 172 174 175 177 181 182 182 180 180 181 183 184 184 188 193 194 192 192 194 194 191 187 182 180 174 169 167 162 159 162 162 163 166 165 166 166 163 160 160 164 166 172 177 172 165 166 176 174 176 181 179 180 180 174 170 169 172 167 163 169 164 158 166 171 158 151 147 129 130 145 146 165 172 148 176 206 206 199 191 187 177 168
170 173 177 177 179 179 179 180 179 179 179 180 181 182 183 184 188 192 192 192 192 191 192 192 189 184 181 177 171 168 164 163 164 162 165 166 165 166 167 164 163 164 162 160 165 164 157 159 162 167 171 179 185 181 183 185 181 173 166 165 158 151 151 150 143 139 145 148 146 148 137 128 120 103 116 140 111 124 179 202 200 204 221 204 188
176 175 177 181 182 180 178 175 175 178 180 180 180 180 181 183 187 189 190 191 192 193 192 191 189 185 183 180 172 166 165 165 165 164 167 168 168 169 167 165 163 162 158 153 158 161 157 160 165 166 170 180 185 185 187 187 186 181 172 168 157 146 144 143 137 125 123 130 137 141 130 118 111 84 72 82 81 91 128 193 202 200 215 219 211
179 177 177 179 179 176 172 171 174 178 179 178 179 180 180 181 185 187 189 190 191 194 194 191 189 187 185 182 175 169 167 167 166 166 167 169 172 172 171 168 162 159 159 155 155 159 162 167 169 165 168 176 182 187 187 180 177 175 169 165 157 149 146 143 136 127 121 118 118 120 112 102 97 82 68 74 79 80 96 95 223 217 233 251 234
175 176 174 170 169 167 169 171 174 176 177 178 181 181 180 181 183 186 188 189 190 192 193 191 190 190 188 183 178 175 172 171 170 168 169 171 173 173 173 172 165 159 158 156 155 157 159 165 171 166 161 164 168 170 170 165 161 160 160 159 155 149 148 146 137 131 127 120 113 110 108 102 94 90 83 82 80 80 96 96 64 189 241 261 263
173 174 170 165 165 165 170 173 175 177 178 180 181 182 183 183 183 185 186 188 190 191 191 189 190 192 189 184 181 178 176 175 174 172 172 174 174 173 173 172 168 163 157 150 154 164 162 161 166 164 157 155 156 154 154 155 154 153 152 150 148 144 143 143 135 130 127 121 117 113 111 106 97 95 93 87 84 79 75 66 46 59 94 254 259
174 173 169 165 167 167 173 176 178 180 179 180 182 183 184 185 185 185 186 188 189 190 191 191 192 193 190 188 185 180 178 178 177 175 175 177 178 176 172 170 169 169 166 157 154 165 168 164 163 161 158 155 155 154 152 153 153 150 148 145 142 140 139 137 131 127 124 121 120 116 110 106 100 98 95 86 80 76 66 52 33 38 53 42 344
173 170 167 163 166 170 175 178 179 181 180 180 183 184 185 187 187 186 185 186 187 189 191 192 193 193 191 191 187 182 180 180 180 180 180 181 181 179 174 172 169 169 172 168 162 165 168 167 165 161 160 158 156 156 154 153 152 148 146 142 139 139 138 133 129 127 123 120 120 116 110 107 103 99 95 86 78 75 69 61 60 63 45 30 27
168 164 163 162 169 172 174 178 180 181 180 181 185 186 188 189 188 187 186 184 185 188 190 192 192 192 192 191 186 182 181 180 181 182 182 182 181 179 175 173 171 167 167 168 170 175 172 166 164 163 163 159 156 156 154 152 151 146 143 139 136 140 138 131 128 124 119 118 118 117 111 105 103 104 98 91 84 78 72 65 64 71 76 35 9
161 161 164 165 170 173 174 177 178 179 181 185 188 189 189 189 187 187 186 184 186 188 190 191 192 192 191 189 184 181 181 181 182 181 181 181 181 179 175 172 170 169 168 168 169 172 170 164 161 161 163 161 157 157 154 151 149 143 140 137 136 139 137 131 128 122 118 119 117 114 110 102 101 106 102 95 89 83 76 69 62 64 73 84 67
158 162 165 166 170 175 176 178 179 180 182 186 190 190 190 189 188 187 185 185 187 188 190 192 192 192 190 186 182 182 183 183 183 181 179 179 179 178 175 171 170 171 171 169 166 165 164 162 160 158 160 160 159 158 153 150 149 144 140 137 136 139 135 130 130 127 124 123 117 109 104 100 97 99 101 98 92 87 81 74 63 57 60 71 87
158 161 164 168 173 175 176 178 179 180 180 184 189 188 188 188 187 187 187 187 187 188 190 192 192 192 189 185 182 181 181 182 181 180 178 178 177 176 174 171 170 172 172 171 170 168 164 160 158 158 159 159 158 155 153 153 152 147 143 140 140 142 137 132 132 129 123 119 114 106 100 97 95 94 96 96 90 84 78 75 70 59 54 54 52
160 161 165 172 176 175 174 175 177 178 178 181 185 185 186 186 186 186 187 188 189 190 191 192 192 191 186 183 182 180 180 181 180 178 177 177 177 176 174 171 169 170 172 173 173 170 166 161 160 160 160 159 156 155 156 157 153 148 146 145 145 145 140 134 131 125 121 121 118 112 108 108 108 105 105 104 95 85 79 77 73 65 57 41 21
160 162 170 174 173 171 169 171 174 175 176 179 182 183 184 185 186 186 186 189 192 192 191 190 190 188 183 180 180 180 179 179 178 177 177 177 177 175 172 170 170 170 173 174 173 170 168 165 164 164 164 161 158 159 160 158 152 148 146 145 146 147 140 132 128 126 127 132 130 124 121 122 122 117 116 118 105 89 84 82 73 63 53 34 11
163 165 171 169 166 163 162 166 169 170 175 179 181 181 182 185 186 186 188 190 192 191 190 188 186 184 182 180 179 178 178 177 175 175 175 176 175 173 171 171 171 172 174 175 174 172 170 168 167 168 166 163 162 162 160 158 154 148 145 146 148 147 139 133 132 133 134 136 139 136 130 127 123 112 112 123 114 90 79 79 75 61 45 37 20
164 166 167 161 159 159 158 162 167 171 176 179 181 181 182 185 187 187 189 191 191 191 189 186 184 181 180 180 179 177 176 176 175 173 173 174 174 172 172 171 169 170 174 175 174 173 171 171 171 170 168 166 165 161 158 159 157 150 148 150 150 146 142 141 140 138 138 138 136 135 132 127 122 113 107 120 123 97 78 79 71 52 32 20 9
163 161 157 152 153 156 158 163 169 173 177 179 182 185 184 185 186 187 190 191 190 190 187 184 182 180 180 180 179 177 175 174 174 173 173 174 175 176 177 174 170 171 174 175 174 173 172 172 173 172 171 170 166 161 161 164 160 153 152 153 151 147 147 149 149 145 143 141 137 133 129 129 133 129 115 115 127 112 85 78 53 27 11 357 358
160 155 150 151 155 160 164 168 171 175 179 181 183 185 185 185 186 187 188 189 189 187 184 182 181 179 179 179 178 177 175 174 173 172 172 175 177 179 180 177 173 175 177 177 175 174 174 175 175 175 174 173 169 165 167 168 161 155 156 157 153 150 150 151 151 150 147 144 141 137 134 139 149 148 133 124 135 128 104 83 49 8 351 350 357
158 154 153 158 161 166 169 170 173 177 180 182 182 183 184 185 186 186 187 188 187 185 182 180 179 178 178 178 178 177 175 173 172 171 172 174 177 180 179 175 173 174 177 176 175 175 177 178 178 177 176 175 171 170 170 166 160 158 159 157 153 152 155 153 150 150 150 149 147 146 149 155 159 158 154 155 156 149 143 111 30 357 353 3 14
156 154 156 161 164 169 172 172 174 176 178 181 181 182 182 183 184 186 187 187 186 182 180 179 177 177 177 177 178 177 174 172 171 171 172 174 176 177 177 176 175 175 176 175 174 176 179 181 180 179 179 177 173 171 171 165 161 162 161 157 157 159 159 156 153 153 153 155 158 160 164 168 170 171 170 170 175 176 182 211 9 19 21 24 24
153 155 158 163 167 171 174 174 174 173 175 178 180 182 182 183 184 184 185 185 183 180 178 176 175 175 176 177 177 176 173 170 170 171 173 175 175 175 177 176 176 176 177 176 175 177 180 182 181 180 181 179 174 174 172 166 164 165 163 162 164 165 161 158 159 162 159 161 170 175 177 180 189 202 213 129 133 151 163 116 50 43 33 22 13
156 160 163 167 169 171 173 175 172 170 171 175 178 181 181 182 182 182 182 181 179 178 175 174 174 174 174 174 174 173 172 170 169 171 172 174 174 175 176 174 174 177 177 177 177 179 180 181 182 182 182 179 177 177 173 169 169 169 168 170 170 167 164 163 165 165 164 169 176 180 183 193 209 211 198 143 124 115 104 86 61 40 18 2 350
161 165 169 170 170 170 169 168 170 171 173 174 176 179 180 180 180 181 180 177 175 175 174 173 173 172 172 171 169 169 170 171 172 172 172 173 174 175 175 172 173 177 178 178 180 181 181 182 183 183 182 180 179 178 175 175 175 174 173 174 173 169 166 167 167 165 166 175 181 183 191 195 179 179 173 153 126 95 65 44 31 11 353 339 328
165 167 169 169 166 165 164 167 172 173 173 173 175 178 178 178 178 179 178 176 174 173 172 172 172 171 170 168 166 167 170 172 173 173 174 175 174 174 173 172 174 177 179 180 182 182 183 185 185 183 182 180 180 179 179 179 177 175 176 177 174 172 170 171 174 172 172 181 188 192 202 200 169 186 192 185 156 59 26 356 345 341 332 324 317
150 160 163 163 162 162 166 172 174 172 171 173 174 174 174 176 177 177 175 174 174 173 172 171 171 169 169 167 166 168 171 173 173 174 176 176 174 173 173 173 174 177 179 182 184 184 184 186 185 184 182 180 181 183 182 180 179 178 178 179 178 178 176 177 181 179 178 188 196 198 201 208 225 217 199 199 223 267 319 317 316 317 324 326 320
136 164 165 162 164 169 172 173 171 169 171 174 173 173 173 175 175 174 171 172 173 173 172 170 169 168 167 167 168 170 172 173 174 175 176 175 174 173 174 174 175 177 180 183 185 184 186 187 185 183 180 180 183 187 184 182 183 181 179 180 183 184 182 183 188 189 189 194 200 201 199 209 231 214 185 218 250 270 309 316 315 317 334 340 336
182 189 179 170 172 175 173 170 169 170 172 173 173 172 172 172 173 172 171 171 172 172 171 169 169 168 167 167 169 171 173 174 176 176 175 175 174 173 174 175 175 178 181 184 184 185 186 186 184 182 180 182 185 186 185 186 185 182 181 183 185 187 187 189 193 197 199 201 203 205 203 213 228 213 210 237 250 273 307 313 310 320 341 347 341
187 188 181 176 173 169 168 169 169 169 169 169 169 168 167 169 171 172 172 171 172 172 170 168 168 169 169 169 171 172 173 174 176 177 176 175 175 174 174 175 177 180 183 184 184 185 185 182 182 182 182 183 184 184 187 188 186 184 185 182 183 189 192 194 197 204 213 212 208 206 208 221 227 214 219 239 249 272 297 298 280 295 329 347 349
183 182 179 177 171 166 168 169 168 166 165 165 165 163 162 165 169 171 173 173 171 171 170 168 167 168 170 171 172 172 172 174 177 177 176 176 175 174 173 175 178 180 183 184 183 184 184 181 181 184 185 185 187 188 190 190 188 188 187 184 185 190 191 195 201 206 210 203 198 199 204 217 220 213 219 237 249 269 289 283 268 281 308 351 359
176 174 178 179 175 171 169 165 163 163 163 162 162 160 159 162 167 170 171 171 169 169 169 167 166 168 170 172 172 172 173 175 177 178 177 177 175 174 174 177 179 179 181 184 184 184 185 183 183 187 189 188 189 193 194 193 193 192 188 188 190 186 188 198 203 200 195 188 190 199 204 209 212 211 220 238 252 267 281 275 272 283 277 264 324
170 169 175 178 175 170 166 162 160 160 160 160 159 159 159 161 165 168 168 167 167 168 167 166 166 168 169 171 174 174 174 176 177 178 178 177 174 173 177 181 183 180 181 183 185 186 187 185 185 187 190 191 192 194 195 196 199 199 195 194 193 182 183 197 200 196 199 200 205 212 214 216 220 221 229 241 251 263 269 266 269 288 278 265 300
165 167 170 172 168 164 161 160 158 157 158 158 158 159 160 162 166 167 165 165 167 168 168 167 166 167 169 172 175 177 176 177 179 180 179 176 174 174 178 183 184 181 181 183 186 188 187 185 186 188 191 194 193 193 195 197 201 205 203 200 197 186 181 194 199 200 208 214 215 217 218 221 222 224 229 236 245 257 261 257 257 282 296 296 322
169 170 167 163 160 157 157 158 159 157 157 157 158 159 161 162 165 168 168 169 171 170 168 167 166 168 171 174 177 179 179 178 179 179 177 176 175 175 176 179 180 179 180 184 188 189 188 189 191 191 193 195 194 194 196 197 202 209 207 203 201 194 187 196 206 210 212 212 212 216 220 222 223 226 229 233 245 258 258 252 251 267 289 306 325
164 159 155 155 155 156 157 158 157 156 155 157 158 160 162 162 163 168 173 172 170 169 169 168 169 171 174 177 180 181 179 177 178 178 176 175 175 176 176 176 175 175 178 182 186 188 189 191 193 195 197 199 201 200 198 197 203 210 208 205 203 198 192 198 209 214 214 213 213 215 218 222 227 233 237 240 249 260 259 252 253 260 275 299 304
156 152 151 151 152 154 154 153 155 155 156 158 158 158 161 163 165 170 172 169 167 168 169 170 172 174 176 178 180 179 177 177 179 178 176 175 177 178 178 175 173 174 177 180 182 185 188 190 192 197 203 205 205 204 200 199 205 208 208 207 204 199 198 203 210 215 216 216 217 217 218 224 231 236 239 241 244 251 253 252 254 259 267 288 293
144 149 152 149 146 149 150 150 154 157 157 158 159 158 161 165 169 171 169 166 167 169 170 171 173 175 177 177 178 178 178 180 180 179 177 176 176 176 175 174 174 175 177 180 182 185 187 188 191 197 204 204 200 198 200 205 208 207 207 207 204 201 202 206 207 209 212 213 217 221 223 227 231 232 230 228 230 241 255 259 254 249 255 273 283
148 150 150 146 144 146 145 146 152 155 158 160 160 158 161 166 169 170 168 167 167 169 171 171 172 173 174 174 175 177 178 179 179 178 177 175 173 172 172 174 176 176 177 180 183 184 184 184 185 188 192 194 194 196 202 209 210 208 207 207 206 203 204 208 207 205 210 214 220 226 229 229 229 226 220 221 230 247 263 266 254 245 249 263 271
132 141 143 142 142 142 141 143 150 156 160 162 161 158 159 165 168 169 171 171 168 167 168 169 168 167 167 169 172 173 174 175 176 177 176 174 172 171 170 173 175 178 180 179 179 181 182 182 181 180 183 189 195 200 205 208 210 211 209 207 206 204 206 210 210 209 216 220 223 229 230 226 224 220 216 220 234 255 269 267 259 251 248 254 262
43 125 139 143 144 144 145 147 152 158 162 163 162 160 160 165 168 169 172 173 169 167 166 165 163 163 164 167 170 171 172 173 174 176 177 176 175 172 171 173 176 179 179 176 175 178 181 181 182 183 186 192 197 201 204 206 208 211 210 208 205 205 209 214 217 218 221 218 215 217 214 211 210 210 214 224 241 265 274 266 259 253 248 252 259
353 330 2 142 144 144 146 147 150 158 162 161 162 164 164 167 170 170 172 172 168 164 162 161 162 163 166 169 171 170 171 172 173 175 176 175 175 174 172 174 177 178 177 177 178 180 180 179 183 188 191 194 197 199 202 206 207 209 211 210 206 206 211 217 220 220 216 200 191 192 191 195 200 207 220 236 252 267 271 264 258 256 255 261 268
55 307 311 339 144 145 145 146 148 154 159 160 164 168 168 169 171 171 170 168 164 161 159 159 162 165 166 169 170 170 170 171 173 175 176 175 176 177 177 179 183 183 181 181 181 183 183 184 188 192 191 191 194 199 205 209 211 210 209 209 207 207 211 215 218 217 213 201 191 194 197 202 212 222 234 247 258 267 269 264 262 263 266 273 278
115 197 223 32 147 151 146 146 148 151 155 158 161 165 168 169 170 171 168 163 160 159 158 159 161 163 164 167 170 171 171 172 173 176 179 180 181 182 183 185 189 190 189 188 187 187 189 192 195 196 194 191 195 205 213 216 217 215 211 208 207 207 209 212 214 214 214 209 206 209 211 213 220 232 243 251 257 262 264 262 265 274 280 282 281
134 178 153 123 154 166 150 147 151 149 149 152 154 158 162 164 167 168 167 163 160 157 156 158 160 162 165 168 169 171 173 174 174 176 178 181 184 188 189 188 190 193 194 194 195 195 196 199 200 200 200 201 206 213 218 218 218 218 216 213 210 208 209 211 212 214 216 214 212 214 215 218 226 237 245 250 252 256 262 268 276 284 283 272 263
118 124 111 116 160 181 167 159 160 155 149 148 150 154 157 158 161 165 165 164 162 157 154 158 162 165 168 169 170 171 173 174 175 176 176 176 179 186 191 192 192 194 196 198 200 202 204 204 203 203 205 210 216 220 220 217 217 219 221 219 216 213 212 212 212 214 214 213 213 215 218 223 231 240 245 251 256 261 269 276 282 287 283 268 259